Weather in Erneyevo

Russia / Ryazan Oblast     54°09′32″N   42°03′22″E
temp.,
°C
wind,
m/s
gust,
m/s
humid.,
%
clouds,
%
prec.,
mm/h
press.,
hPa
HPBL,
m
25 february, thu
thu2500:00−18ssw5995100 0.2 1033327
03:00−17ssw61094100 0.4 1030403
06:00−15ssw61195100 1.2 1027426
09:00−12ssw71294100 2.9 1023432
12:00−8ssw71395100 2.0 1018476
15:00−3ssw61295100 4.8 1014391
18:00+2wnw510100100 0.6 1013270
21:00+2wnw51199100 0.6 1013297
26 february, fri
fri2600:00+1wnw51098100 0.0 1013282
03:00+1w5996100 0.0 1014266
06:00+1wsw47100100 0.1 1012198
09:00+1wsw49100100 0.8 1011249
12:00+2wsw513100100 0.8 1009358
15:00+3wsw715100100 1.5 1006422
18:00+2wsw71599100 0.8 1003444
21:00+2w71696100 1.4 1003624
27 february, sat
sat2700:00+2w7159299 0.1 1002787
03:00+1w7149298 0.1 1002786
06:000w61392100 0.1 1001630
09:000w7139096 0.1 1001607
12:000w7129994 0.1 1000760
15:00+1w7129494 0.1 1001781
18:00−6nnw61191100 0.9 1002700
21:00−8nnw51091100 1.0 1006668
28 february, sun
sun2800:00−10nnw5109494 0.1 1008359
03:00−12nnw499583 0.1 1011263
06:00−13nnw489677 0.0 1012250
09:00−12nnw489268 0.1 1014393
12:00−10nnw479090 0.0 1015482
15:00−8nnw488994 0.0 1016617
18:00−8nnw3994100 0.1 1017471
21:00−10n3796100 0.1 1020163
1 march, mon
mon100:00−12nnw349693 0.1 102283
03:00−13nnw359680 0.1 1024111
06:00−14nnw359654 0.0 1025105
09:00−12n369453 0.0 1026235
12:00−8nnw249089 0.0 1027321
15:00−5wnw249095 0.1 1026473
18:00−5wsw3693100 0.1 1026212
21:00−7wsw489399 0.1 1025191